LICD

Details ICAO LICD (LMP)
Name Lampedusa Airport
Region Italy
Timezone Europe/Rome (UTC+1.0)
Plans Departing 83
Arriving 152
Stats Elevation 65 ft / 20 m (AMSL)
Location 35.498100° 12.618300°
Runways 1
Magnetic Variation 2.825° E
Sunrise 2019-02-16 05:57:05 UTC / 2019-02-16 06:57:05 Local
Sunset 2019-02-16 16:53:02 UTC / 2019-02-16 17:53:02 Local
Advertisement - Login to hide

Runways

ID Width Length Bearing (true/mag) Surface Threshold Overrun Markings Lighting
08 148 ft / 45 m 5,890 ft / 1,795 m 80.57° / 77.75° ASPHALT 0 ft / 0 m 0 ft / 0 m PREC-APP CENTERLINE EDGE THRESHOLD SALS REIL-OMNI
26 148 ft / 45 m 5,890 ft / 1,795 m 260.58° / 257.76° ASPHALT 0 ft / 0 m 0 ft / 0 m PREC-APP CENTERLINE EDGE THRESHOLD REIL-OMNI

Approach Navaids

Runway Type Ident Frequency Range Bearing (true/mag) Slope Elevation
26 DME ILMA 111.30 MHz 25 nm / 46 km - - 70 ft / 21 m (AMSL)
26 LOC-ILS ILMA 111.30 MHz 20 nm / 37 km 260.60° / 257.78° - 70 ft / 21 m (AMSL)

Map

Weather


0- 5 10 15 20 25 30 35+ Temperature / °C

Clouds and Precipitation
Forecast for 2019-02-16 00:00 UTC. Updated 5 hours ago

Ground ~20,000 ft ~40,000 ft Winds

METAR

LICD 160150Z AUTO 06022KT 9999 BKN014 12/09 Q1023

TAF

TAF LICD 152300Z 1600/1624 05015KT 9999 SCT030 TEMPO 1600/1604 RA BECMG 1616/1618 VRB05KT

Frequencies

Unicom 122.10 MHz Lampedusa Aerodrome Unicom
Tower 123.50 MHz Lampedusa Tower
Warning: Do not use this data for real-world aviation or navigation. No guarantee of current accuracy is given.